This demonstration page uses our WeatherBlox Daily Observations layout. Learn more.

39.01783, -85.05884

Hourly Observations for February 11, 2019

Temp ( °F °C ) Dew Point ( °F °C ) Humidity (%) Winds ( mph kmh ) Pressure ( in mb ) Visibility ( mi km ) Precip ( " mm )
12:52 am 00:52 Cloudy with Mist and Fog 35 1.7 34 1.1 96 96 SSE 5 7 30.15 1021 0.75 1.207008 0.001 0.001
1:52 am 01:52 Cloudy with Light Drizzle 35 1.7 34 1.1 96 96 S 5 7 30.15 1021 0.75 1.207008 0.01 0.254
2:52 am 02:52 Mostly Cloudy with Patchy Fog 36 2.2 35 1.7 97 97 S 5 7 30.15 1021 0.75 1.207008 0.001 0.001
3:27 am 03:27 Mostly Cloudy with Light Rain 36 2.2 35 1.7 97 97 SSE 3 6 30.18 1022 0.5 0.804672 0.02 0.508
3:52 am 03:52 Cloudy with Light Rain 37 2.8 35 1.7 93 93 Calm 30.12 1020 0.5 0.804672 0.02 0.508
4:52 am 04:52 Cloudy with Light Rain 36 2.2 35 1.7 97 97 S 3 6 30.09 1019 0.5 0.804672 0.02 0.508
5:52 am 05:52 Cloudy with Light Rain 38 3.3 36 2.2 93 93 Calm 30.12 1020 1.5 2.414016 0.02 0.508
6:17 am 06:17 Cloudy with Light Rain 37 2.8 36 2.2 96 96 ESE 5 7 30.15 1021 1.5 2.414016 0.03 0.762
6:52 am 06:52 Cloudy with Light Rain 37 2.8 36 2.2 96 96 Calm 30.12 1020 1.5 2.414016 0.05 1.27
7:07 am 07:07 Cloudy with Light Rain 37 2.8 36 2.2 96 96 Calm 30.15 1021 1.5 2.414016 0.01 0.254
7:52 am 07:52 Cloudy with Light Rain 38 3.3 36 2.2 93 93 NE 3 6 30.12 1020 1.5 2.414016 0.04 1.016
8:41 am 08:41 Cloudy with Light Rain 38 3.3 36 2.2 93 93 E 6 9 30.15 1021 1 1.609344 0.02 0.508
8:52 am 08:52 Cloudy with Light Rain 38 3.3 36 2.2 93 93 NE 7 11 30.12 1020 0.5 0.804672 0.02 0.508
9:16 am 09:16 Cloudy with Light Rain 38 3.3 36 2.2 93 93 E 7 11 30.15 1021 0 0 0.01 0.254
9:30 am 09:30 Cloudy with Light Rain 38 3.3 37 2.8 97 97 SSE 10 17 30.15 1021 1.5 2.414016 0.01 0.254
9:52 am 09:52 Cloudy with Light Rain 39 3.9 37 2.8 93 93 SE 7 11 30.12 1020 1.5 2.414016 0.02 0.508
10:52 am 10:52 Cloudy with Light Rain 41 5 39 3.9 93 93 E 6 9 30.09 1019 1.5 2.414016 0.01 0.254
11:52 am 11:52 Cloudy with Light Rain 42 5.6 40 4.4 92 92 E 7 11 30.09 1019 1.5 2.414016 0.01 0.254
12:31 pm 12:31 Cloudy with Light Rain 41 5 40 4.4 96 96 ENE 7 11 30.12 1020 1.5 2.414016 0.02 0.508
12:52 pm 12:52 Cloudy with Light Rain 42 5.6 40 4.4 92 92 ENE 6 9 30.06 1018 1.5 2.414016 0.04 1.016
1:52 pm 13:52 Cloudy with Light Rain 42 5.6 40 4.4 92 92 ESE 7 11 30.03 1017 1.5 2.414016 0.04 1.016
2:06 pm 14:06 Cloudy with Light Rain 43 6.1 41 5 93 93 ESE 8 13 30.06 1018 4 6.437376 0.02 0.508
2:52 pm 14:52 Cloudy with Light Rain 43 6.1 41 5 93 93 E 7 11 30 1016 4 6.437376 0.07 1.778
3:52 pm 15:52 Cloudy with Light Rain 43 6.1 41 5 93 93 E 8 13 30 1016 2.5 4.02336 0.09 2.286
4:52 pm 16:52 Cloudy with Light Rain 43 6.1 41 5 93 93 E 8 13 29.97 1015 2.5 4.02336 0.07 1.778
5:13 pm 17:13 Cloudy with Light Rain 43 6.1 41 5 93 93 ESE 8 13 30.03 1017 2.5 4.02336 0.01 0.254
5:52 pm 17:52 Cloudy with Light Rain 43 6.1 41 5 93 93 E 9 15 29.97 1015 2.5 4.02336 0.04 1.016
6:07 pm 18:07 Cloudy with Light Rain 43 6.1 41 5 93 93 E 9 15 30.03 1017 1.5 2.414016 0.02 0.508
6:52 pm 18:52 Cloudy with Light Rain 43 6.1 41 5 93 93 ENE 8 13 29.97 1015 1.5 2.414016 0.06 1.524
7:52 pm 19:52 Cloudy with Light Rain 42 5.6 40 4.4 92 92 E 12 19 29.97 1015 1.5 2.414016 0.07 1.778
8:52 pm 20:52 Cloudy with Light Rain 42 5.6 40 4.4 92 92 E 13 20 29.94 1014 1.5 2.414016 0.06 1.524
9:52 pm 21:52 Cloudy with Rain 42 5.6 40 4.4 92 92 E 14 22 29.91 1013 1.5 2.414016 0.08 2.032
10:16 pm 22:16 Cloudy with Light Rain 42 5.6 40 4.4 92 92 E 14 22 29.94 1014 1.5 2.414016 0.05 1.27
10:52 pm 22:52 Cloudy with Light Rain 42 5.6 40 4.4 92 92 E 13 20 29.88 1012 1.5 2.414016 0.08 2.032
10:56 pm 22:56 Cloudy with Light Rain 42 5.6 40 4.4 92 92 E 12 19 29.91 1013 4 6.437376 0.001 0.001
11:52 pm 23:52 Cloudy with Light Rain 42 5.6 40 4.4 92 92 ESE 9 15 29.83 1010 4 6.437376 0.04 1.016

Powered by AerisWeather